Location: Unspecified
(49.2170°N, 0.0000°E)
Time: 14:48:41
(UTC+00:00)

Tiros 1 despin weight - Pass Details

Date: 26 January 2021
Orbit: 593 x 642 km, 48.2° (Epoch: 06 March)

Event Time Altitude Azimuth Distance (km) Brightness Sun altitude
Rises 17:26:27 0° 278° (W) 2,872 ? -6.7°
Reaches altitude 10° 17:28:47 10° 275° (W) 1,958 ? -7.0°
Maximum altitude 17:33:13 64° 195° (SSW) 668 ? -7.7°
Drops below altitude 10° 17:37:36 10° 114° (ESE) 1,930 ? -8.4°
Enters shadow 17:38:56 - 112° (ESE) 2,452 ? -8.6°
Sets 17:39:53 0° 111° (ESE) 2,827 - -8.8°
